Showing default

LUOJIA-1 01, 43485

Orbit data source: Space-Track

LUOJIA-1 01, 43485 is a payload satellite owned by Wuhan daxue (CN) in SSO that was launched on Sat, 02 Jun 2018 UTC via a CHANG ZHENG 2D launch vehicle from the Jiuquan Satellite Launch Center, China (JSC). Payload-class satellites include a variety of spacecraft equipped with specific instruments for various scientific and technological missions. These include communications satellites like Starlink; space stations such as the ISS; scientific satellites like the Hubble; Earth observation satellites from companies like Planet Labs, Umbra, and HawkEye 360; GPS; miniature CubeSats for education and research; and military/defense satellites.

Loading next visibility...
Identifier
43485, 2018-048B
Orbit
SSO
Last TLE update
8 hours ago
Origin
Manufacturer
Wuhan daxue
Mission
Operational Amateur Imaging
Bus & Motor
CUBESAT 6U, Unknown motor
Mass
10 kg wet, 10 kg dry
Launch date (UTC)
2018-06-02 (7 years ago)
Launch vehicle
CHANG ZHENG 2D
Launch site
Jiuquan Satellite Launch Center, China (JSC)
Object type
Payload
Rocket body
Debris
Shape & HBR
Box + 1 Pan, 0.5 m
Radar Cross Section
0.092 m², Medium (>0.1 m² and < 1m²)

Expand to show TLE details & history

TLE from 8 hours ago
0 LUOJIA-1 01
1 43485U 18048B   25128.93871388  .00002781  00000-0  33155-3 0  9998
2 43485  97.8429 208.4301 0009522  17.9785 342.1765 14.85067586374178
Epoch: 2025-05-08T22:31Z
Definitive object data (Epoch: 2025-05-08T22:31:44.879Z)
Latitude
0.00001°
Longitude
3.49108°
Altitude
610.065 km
Speed
7.558 km/s
True Right ascension
13h 53m 43s
True Declination
0° 00' 00"
Sunlit
Object was in full shadow at TLE epoch
Visualization TLE readout
Latitude
-37.34622°
Longitude
9.81642°
Altitude
623.721 km
Speed
7.548 km/s
Apparent Right ascension
12h 30m 00s
Apparent Declination
-84° 40' 52"
Sunlit
Object is in full shadow
Visualization observer readout
Local Sidereal Time
14:35:35
Azimuth
183.393° SSW
Elevation
-35.325°
Doppler factor
1
Orbital elements
Apogee altitude
617.06 km
Perigee altitude
603.751 km
Semi-major axis
6,988.542 km
Eccentricity
0.0009522
Inclination
97.8429°
RAAN
208.4301°
Arg. of periapsis
17.9785°
True anomaly
342.14306°
Mean anomaly
342.1765°
Eccentric anomaly
342.15979°
Mean motion
3.71504 °/min
BSTAR
0.00033155
Orbital period
96.9 mins
Loading maneuver chart data...
Loading SW <> Apogee altitude chart data...
Loading historical data...
Loading historical data...
Loading historical data...
Loading historical data...
Loading historical data...
Loading historical data...
Loading historical data...
Other satellites on launch #48 in the year 2018 (2018-06-02 UTC)

LUOJIA-1 01 Visibility forecast

Observer location: undefined°, undefined°

Span
Click to sort rows by Start time (UTC) header in descending order
Start Az.
Max El. time (UTC)
Max El. Az.
Max El.
End time (UTC)
End Az.
6 mins2025-05-09 18:30:45.015Z354.342° N2025-05-09 18:33:45.015Z264.681° W37.246°2025-05-09 18:36:45.015Z213.579° SW
6 mins2025-05-10 05:23:45.015Z175.484° S2025-05-10 05:25:45.015Z222.896° SW43.861°2025-05-10 05:29:45.015Z343.891° N
|